When you browse on this site, cookies collect data to enhance your experience and personalize the content and advertising you see.
Visit our Privacy Policy to learn more. By continuing to use the site, you agree to this use of cookies and data.
  • In Czech Republic
  • List of Countries
  • For 7 days
  • Water Temperature
  • Satellite Maps
  • Weather Map
  • Weather Widgets
  • user-avatar
    Login

    Hourly Weather Wigry

    Today, 19 February, Tuesday

    Time Temperature Precipitation Wind Pressure Humidity
    00:00 +1°C° 0 mm 3 mps 752 mmHg 93%
    01:00 +1°C° 0 mm 3 mps 752 mmHg 93%
    02:00 0°C° 0 mm 4 mps 751 mmHg 94%
    03:00 0°C° 0 mm 4 mps 751 mmHg 94%
    04:00 0°C° 0 mm 4 mps 750 mmHg 94%
    05:00 0°C° 0 mm 4 mps 749 mmHg 94%
    06:00 0°C° 0 mm 4 mps 749 mmHg 94%
    07:00 -1°C° 0 mm 4 mps 748 mmHg 94%
    08:00 -1°C° 0 mm 4 mps 748 mmHg 94%
    09:00 0°C° 0 mm 4 mps 747 mmHg 88%
    10:00 +1°C° 0 mm 5 mps 747 mmHg 82%
    11:00 +3°C° 0 mm 5 mps 746 mmHg 76%
    12:00 +5°C° 0 mm 5 mps 746 mmHg 70%
    13:00 +5°C° 0 mm 6 mps 745 mmHg 65%
    14:00 +8°C° 0 mm 5 mps 745 mmHg 59%
    15:00 +8°C° 0 mm 5 mps 744 mmHg 61%
    16:00 +7°C° 0 mm 5 mps 744 mmHg 62%
    17:00 +7°C° 0 mm 5 mps 744 mmHg 64%
    18:00 +6°C° 0 mm 5 mps 744 mmHg 70%
    19:00 +5°C° 0 mm 4 mps 744 mmHg 76%
    20:00 +4°C° 0 mm 4 mps 744 mmHg 82%
    21:00 +4°C° 0 mm 4 mps 744 mmHg 83%
    22:00 +4°C° 0 mm 4 mps 744 mmHg 85%
    23:00 +4°C° 0 mm 4 mps 744 mmHg 87%

    Tomorrow, 20 February, Wednesday

    Time Temperature Precipitation Wind Pressure Humidity
    00:00 +3°C° 0 mm 4 mps 744 mmHg 87%
    01:00 +2°C° 0 mm 5 mps 744 mmHg 88%
    02:00 +2°C° 0 mm 5 mps 744 mmHg 88%
    03:00 +2°C° 0 mm 6 mps 743 mmHg 87%
    04:00 +2°C° 0 mm 6 mps 743 mmHg 85%
    05:00 +2°C° 0 mm 6 mps 743 mmHg 84%
    06:00 +2°C° 0.1 mm 6 mps 743 mmHg 84%
    07:00 +2°C° 0.1 mm 6 mps 743 mmHg 83%
    08:00 +2°C° 0.1 mm 6 mps 743 mmHg 82%
    09:00 +2°C° 0 mm 7 mps 744 mmHg 80%
    10:00 +2°C° 0 mm 7 mps 744 mmHg 78%
    11:00 +1°C° 0 mm 8 mps 744 mmHg 75%
    12:00 +2°C° 0 mm 8 mps 744 mmHg 74%
    13:00 +2°C° 0 mm 8 mps 744 mmHg 73%
    14:00 +2°C° 0 mm 8 mps 745 mmHg 72%
    15:00 +2°C° 0 mm 8 mps 745 mmHg 73%
    16:00 +2°C° 0 mm 8 mps 746 mmHg 74%
    17:00 +1°C° 0 mm 8 mps 746 mmHg 76%
    18:00 0°C° 0 mm 7 mps 747 mmHg 74%
    19:00 -1°C° 0 mm 7 mps 747 mmHg 72%
    20:00 -2°C° 0 mm 6 mps 748 mmHg 69%
    21:00 -2°C° 0 mm 5 mps 748 mmHg 69%
    22:00 -2°C° 0 mm 5 mps 749 mmHg 68%
    23:00 -4°C° 0 mm 5 mps 749 mmHg 67%

    Day after tomorrow, 21 February, Thursday

    Time Temperature Precipitation Wind Pressure Humidity
    00:00 -4°C° 0 mm 5 mps 750 mmHg 67%
    01:00 -4°C° 0 mm 5 mps 750 mmHg 67%
    02:00 -3°C° 0 mm 4 mps 751 mmHg 66%
    03:00 -3°C° 0 mm 4 mps 751 mmHg 66%
    04:00 -3°C° 0 mm 4 mps 751 mmHg 65%
    05:00 -3°C° 0 mm 4 mps 751 mmHg 64%
    06:00 -3°C° 0 mm 4 mps 751 mmHg 64%
    07:00 -2°C° 0 mm 3 mps 751 mmHg 63%
    08:00 -2°C° 0 mm 3 mps 751 mmHg 63%
    09:00 -2°C° 0 mm 2 mps 751 mmHg 60%
    10:00 -1°C° 0 mm 2 mps 751 mmHg 57%
    11:00 -1°C° 0 mm 2 mps 751 mmHg 54%
    12:00 +1°C° 0.1 mm 1 mps 751 mmHg 57%
    13:00 +1°C° 0.1 mm 1 mps 751 mmHg 59%
    14:00 0°C° 0.1 mm 0 mps 751 mmHg 62%
    15:00 0°C° 0.2 mm 1 mps 750 mmHg 66%
    16:00 0°C° 0.2 mm 1 mps 750 mmHg 70%
    17:00 0°C° 0.2 mm 1 mps 750 mmHg 75%
    18:00 -2°C° 0.2 mm 2 mps 750 mmHg 72%
    19:00 -2°C° 0.2 mm 3 mps 750 mmHg 70%
    20:00 -4°C° 0.2 mm 3 mps 751 mmHg 68%
    21:00 -4°C° 0.1 mm 3 mps 751 mmHg 66%
    22:00 -4°C° 0.1 mm 4 mps 752 mmHg 64%
    23:00 -4°C° 0.1 mm 4 mps 752 mmHg 62%

    22 February, Friday

    Time Temperature Precipitation Wind Pressure Humidity
    00:00 -5°C° 0 mm 4 mps 753 mmHg 62%
    01:00 -5°C° 0 mm 4 mps 754 mmHg 62%
    02:00 -5°C° 0 mm 4 mps 755 mmHg 62%
    03:00 -7°C° 0 mm 5 mps 756 mmHg 61%
    04:00 -7°C° 0 mm 5 mps 756 mmHg 61%
    05:00 -8°C° 0 mm 5 mps 757 mmHg 61%
    06:00 -8°C° 0 mm 5 mps 758 mmHg 61%
    07:00 -10°C° 0 mm 5 mps 759 mmHg 61%
    08:00 -11°C° 0 mm 5 mps 760 mmHg 61%
    09:00 -10°C° 0 mm 5 mps 761 mmHg 56%
    10:00 -8°C° 0 mm 5 mps 762 mmHg 51%
    11:00 -8°C° 0 mm 5 mps 763 mmHg 45%
    12:00 -7°C° 0 mm 5 mps 763 mmHg 42%
    13:00 -5°C° 0 mm 4 mps 764 mmHg 38%
    14:00 -5°C° 0 mm 4 mps 764 mmHg 34%
    15:00 -5°C° 0 mm 4 mps 765 mmHg 35%
    16:00 -5°C° 0 mm 4 mps 765 mmHg 36%
    17:00 -5°C° 0 mm 3 mps 765 mmHg 36%
    18:00 -5°C° 0 mm 3 mps 765 mmHg 38%
    19:00 -6°C° 0 mm 3 mps 766 mmHg 41%
    20:00 -6°C° 0 mm 3 mps 766 mmHg 43%
    21:00 -7°C° 0 mm 3 mps 766 mmHg 45%
    22:00 -7°C° 0 mm 3 mps 766 mmHg 46%
    23:00 -7°C° 0 mm 3 mps 766 mmHg 48%

    23 February, Saturday

    Time Temperature Precipitation Wind Pressure Humidity
    00:00 -7°C° 0 mm 3 mps 766 mmHg 50%
    01:00 -7°C° 0 mm 3 mps 766 mmHg 53%
    02:00 -7°C° 0 mm 2 mps 766 mmHg 55%
    03:00 -7°C° 0 mm 2 mps 766 mmHg 57%
    04:00 -7°C° 0 mm 2 mps 766 mmHg 58%
    05:00 -7°C° 0 mm 2 mps 766 mmHg 60%
    06:00 -7°C° 0 mm 2 mps 766 mmHg 61%
    07:00 -6°C° 0 mm 1 mps 766 mmHg 62%
    08:00 -6°C° 0 mm 1 mps 765 mmHg 62%
    09:00 -4°C° 0 mm 1 mps 765 mmHg 59%
    10:00 -3°C° 0 mm 1 mps 765 mmHg 57%
    11:00 -2°C° 0 mm 1 mps 765 mmHg 54%
    12:00 -4°C° 0 mm 2 mps 765 mmHg 52%
    13:00 -3°C° 0 mm 2 mps 765 mmHg 50%
    14:00 -2°C° 0 mm 2 mps 765 mmHg 48%
    15:00 -2°C° 0 mm 2 mps 764 mmHg 52%
    16:00 -3°C° 0 mm 2 mps 764 mmHg 56%
    17:00 -3°C° 0 mm 2 mps 763 mmHg 60%
    18:00 -3°C° 0.1 mm 2 mps 763 mmHg 66%
    19:00 -3°C° 0.1 mm 2 mps 763 mmHg 72%
    20:00 -5°C° 0.1 mm 3 mps 762 mmHg 78%
    21:00 -5°C° 0.1 mm 3 mps 762 mmHg 80%
    22:00 -4°C° 0.1 mm 3 mps 762 mmHg 83%
    23:00 -4°C° 0.1 mm 3 mps 761 mmHg 85%

    24 February, Sunday

    Time Temperature Precipitation Wind Pressure Humidity
    00:00 -4°C° 0.1 mm 3 mps 761 mmHg 87%
    01:00 -4°C° 0.1 mm 3 mps 761 mmHg 88%
    02:00 -2°C° 0.1 mm 2 mps 761 mmHg 89%
    03:00 -2°C° 0 mm 2 mps 761 mmHg 91%
    04:00 -2°C° 0 mm 2 mps 761 mmHg 93%
    05:00 -2°C° 0 mm 2 mps 761 mmHg 95%
    06:00 -1°C° 0 mm 2 mps 761 mmHg 95%
    07:00 -1°C° 0 mm 2 mps 761 mmHg 96%
    08:00 -1°C° 0 mm 2 mps 762 mmHg 96%
    09:00 -1°C° 0 mm 2 mps 762 mmHg 93%
    10:00 -1°C° 0 mm 3 mps 763 mmHg 90%
    11:00 0°C° 0 mm 3 mps 763 mmHg 87%
    12:00 0°C° 0 mm 3 mps 763 mmHg 85%
    13:00 +1°C° 0 mm 2 mps 764 mmHg 84%
    14:00 +1°C° 0 mm 2 mps 764 mmHg 82%
    15:00 +1°C° 0 mm 2 mps 764 mmHg 82%
    16:00 +1°C° 0 mm 2 mps 764 mmHg 83%
    17:00 +1°C° 0 mm 2 mps 764 mmHg 83%
    18:00 +1°C° 0 mm 2 mps 764 mmHg 85%
    19:00 +1°C° 0 mm 1 mps 764 mmHg 87%
    20:00 +1°C° 0 mm 1 mps 764 mmHg 89%
    21:00 +1°C° 0 mm 1 mps 765 mmHg 90%
    22:00 +1°C° 0 mm 1 mps 765 mmHg 92%
    23:00 0°C° 0 mm 1 mps 765 mmHg 93%
    Show more